sat.trackr.live / text

‹ back to catalog

STARLINK-35529

NORAD 66259 · 2025-245AB

PAYLOAD ACTIVE UNKNOWN

§ Identity

Operator
Country
US
Launch date
2025-10-29
Launch site
AFETR
Launch vehicle
Mass (kg)
RCS (m²)

Purposes: comms

External: N2YO · Heavens-Above · Gunter

§ Orbital elements

Epoch: 2026-05-24T16:36:25.597152Z

Period
94.11 min
Inclination
53.1574°
Eccentricity
0.0000912
Mean motion
15.30198399 rev/d
Perigee alt
474.6 km
Apogee alt
475.8 km
Semi-major
6,853.4 km
B*
6.5591e-4
RAAN
290.8038°
Arg perigee
86.2559°
Mean anomaly
273.8546°
Rev number
3,289

§ Raw data

STARLINK-355291 66259U 25245AB  26144.69196293  .00019116  00000+0  65591-3 0  99942 66259  53.1574 290.8038 0000912  86.2559 273.8546 15.30198399 32897

JSON: /api/v1/satellites/66259 · /tle

For live sub-satellite position, see the globe view (requires WebGL).

§ Visibility from observer

Set your observer location to see the next 7 days of passes ≥ 10°. The values pass through the URL so the page stays shareable.

No JS? Fill the form by hand. The geolocation button needs JavaScript.